TimeCDT,TemperatureF,Dew PointF,Humidity,Sea Level PressureIn,VisibilityMPH,Wind Direction,Wind SpeedMPH,Gust SpeedMPH,PrecipitationIn,Events,Conditions,WindDirDegrees,DateUTC
12:06 AM,30.2,26.6,86,29.85,2.5,NNW,12.7,-,0.00,Snow,Light Snow,340,2013-03-25 05:06:00
12:25 AM,30.2,28.4,93,29.85,3.0,NNW,13.8,20.7,0.00,Snow,Light Snow,330,2013-03-25 05:25:00
12:53 AM,30.0,27.0,88,29.87,2.0,NNW,12.7,20.7,0.00,Snow,Light Snow,330,2013-03-25 05:53:00
1:09 AM,30.2,26.6,86,29.85,1.8,NNW,12.7,24.2,0.00,Snow,Light Snow,340,2013-03-25 06:09:00
1:20 AM,30.2,26.6,86,29.85,1.5,NNW,11.5,-,0.00,Snow,Light Snow,340,2013-03-25 06:20:00
1:24 AM,30.2,28.4,93,29.85,1.5,NNW,11.5,-,0.00,Snow,Light Snow,340,2013-03-25 06:24:00
1:35 AM,30.2,26.6,86,29.86,2.0,NNW,13.8,-,0.00,Snow,Light Snow,330,2013-03-25 06:35:00
1:41 AM,30.2,26.6,86,29.86,2.0,NNW,11.5,-,0.00,Snow,Light Snow,330,2013-03-25 06:41:00
1:53 AM,30.0,27.0,88,29.88,1.8,NNW,10.4,-,0.00,Snow,Light Snow,340,2013-03-25 06:53:00
2:19 AM,30.2,28.4,93,29.86,1.2,NNW,10.4,-,0.00,Snow,Light Snow,340,2013-03-25 07:19:00
2:28 AM,30.2,26.6,86,29.86,1.5,NNW,11.5,-,0.00,Snow,Light Snow,330,2013-03-25 07:28:00
2:46 AM,30.2,26.6,86,29.86,2.0,NNW,12.7,-,0.00,Snow,Light Snow,330,2013-03-25 07:46:00
2:53 AM,30.0,27.0,88,29.88,1.8,NNW,11.5,-,0.00,Snow,Light Snow,330,2013-03-25 07:53:00
3:12 AM,28.4,26.6,93,29.86,1.2,NNW,11.5,-,0.00,Snow,Light Snow,330,2013-03-25 08:12:00
3:19 AM,28.4,26.6,93,29.86,1.5,NNW,9.2,-,0.00,Snow,Light Snow,340,2013-03-25 08:19:00
3:45 AM,28.4,26.6,93,29.86,1.2,NNW,10.4,-,0.00,Snow,Light Snow,340,2013-03-25 08:45:00
3:53 AM,28.9,27.0,92,29.88,1.2,NNW,10.4,-,0.00,Snow,Light Snow,330,2013-03-25 08:53:00
4:01 AM,28.4,26.6,93,29.86,1.2,NNW,11.5,-,0.00,Snow,Light Snow,340,2013-03-25 09:01:00
4:44 AM,28.4,26.6,93,29.86,1.8,NNW,12.7,-,0.00,Snow,Light Snow,340,2013-03-25 09:44:00
4:53 AM,28.9,27.0,92,29.88,1.5,NNW,10.4,-,0.00,Snow,Light Snow,330,2013-03-25 09:53:00
5:06 AM,28.4,26.6,93,29.87,2.0,NNW,10.4,-,0.00,Snow,Light Snow,330,2013-03-25 10:06:00
5:21 AM,28.4,26.6,93,29.87,3.0,NW,9.2,-,N/A,Snow,Light Snow,320,2013-03-25 10:21:00
5:53 AM,28.4,26.6,93,29.87,9.0,NNW,10.4,-,N/A,,Overcast,330,2013-03-25 10:53:00
6:03 AM,28.4,26.6,93,29.87,4.0,NNW,9.2,-,0.00,Snow,Light Snow,330,2013-03-25 11:03:00
6:13 AM,28.4,26.6,93,29.88,3.0,NW,11.5,-,0.00,Snow,Light Snow,320,2013-03-25 11:13:00
6:22 AM,28.4,26.6,93,29.88,2.5,NW,11.5,-,0.00,Snow,Light Snow,320,2013-03-25 11:22:00
6:51 AM,28.4,26.6,93,29.89,2.0,NW,9.2,-,0.00,Snow,Light Snow,320,2013-03-25 11:51:00
6:53 AM,28.9,27.0,92,29.91,2.0,NW,10.4,-,0.00,Snow,Light Snow,320,2013-03-25 11:53:00
7:02 AM,28.4,26.6,93,29.89,1.5,NNW,11.5,-,0.00,Snow,Light Snow,330,2013-03-25 12:02:00
7:13 AM,28.4,26.6,93,29.90,2.5,NNW,10.4,-,0.00,Snow,Light Snow,330,2013-03-25 12:13:00
7:15 AM,28.4,26.6,93,29.90,3.0,NW,9.2,-,0.00,Snow,Light Snow,320,2013-03-25 12:15:00
7:22 AM,28.4,26.6,93,29.90,6.0,NW,10.4,-,0.00,,Overcast,320,2013-03-25 12:22:00
7:53 AM,30.0,26.1,85,29.93,10.0,NNW,9.2,-,0.00,,Overcast,330,2013-03-25 12:53:00
8:06 AM,30.2,26.6,86,29.92,10.0,NNW,10.4,17.3,N/A,,Overcast,330,2013-03-25 13:06:00
8:53 AM,30.0,26.1,85,29.96,10.0,NNW,15.0,-,N/A,,Overcast,340,2013-03-25 13:53:00
9:53 AM,30.0,26.1,85,29.99,10.0,NNW,11.5,-,N/A,,Overcast,340,2013-03-25 14:53:00
10:09 AM,30.2,24.8,80,29.97,10.0,NNW,11.5,-,N/A,,Overcast,330,2013-03-25 15:09:00
10:31 AM,30.2,24.8,80,29.97,10.0,NNW,15.0,-,0.01,,Mostly Cloudy,340,2013-03-25 15:31:00
10:53 AM,30.9,23.0,72,30.00,10.0,NNW,15.0,25.3,0.04,,Scattered Clouds,340,2013-03-25 15:53:00
11:53 AM,32.0,21.9,66,30.02,10.0,NNW,13.8,-,N/A,,Partly Cloudy,340,2013-03-25 16:53:00
12:53 PM,33.1,21.9,64,30.02,10.0,NW,13.8,-,N/A,,Mostly Cloudy,320,2013-03-25 17:53:00
1:53 PM,33.1,23.0,66,30.03,10.0,NNW,11.5,19.6,N/A,,Mostly Cloudy,330,2013-03-25 18:53:00
2:53 PM,32.0,23.0,69,30.04,10.0,NW,12.7,-,N/A,,Clear,320,2013-03-25 19:53:00
3:53 PM,33.1,24.1,70,30.06,10.0,NW,12.7,-,N/A,,Partly Cloudy,320,2013-03-25 20:53:00
4:24 PM,33.8,24.8,70,30.05,10.0,NW,12.7,20.7,N/A,,Mostly Cloudy,320,2013-03-25 21:24:00
4:53 PM,33.1,24.1,70,30.08,10.0,NW,13.8,-,N/A,,Scattered Clouds,320,2013-03-25 21:53:00
5:53 PM,34.0,25.0,70,30.10,10.0,NW,11.5,-,N/A,,Mostly Cloudy,320,2013-03-25 22:53:00
6:53 PM,33.1,25.0,72,30.12,10.0,NNW,9.2,-,N/A,,Overcast,330,2013-03-25 23:53:00
7:53 PM,33.1,23.0,66,30.14,10.0,NNW,6.9,-,N/A,,Overcast,340,2013-03-26 00:53:00
8:53 PM,33.1,23.0,66,30.16,10.0,NNW,5.8,-,N/A,,Overcast,330,2013-03-26 01:53:00
9:53 PM,33.1,24.1,70,30.18,10.0,NNW,8.1,-,N/A,,Overcast,340,2013-03-26 02:53:00
10:53 PM,33.1,24.1,70,30.19,10.0,NNW,6.9,-,N/A,,Overcast,330,2013-03-26 03:53:00
11:53 PM,33.1,25.0,72,30.20,10.0,NNW,9.2,-,N/A,,Overcast,330,2013-03-26 04:53:00